Regional Weather Roundup
Issued by NWS

Home | Current Version | Previous Version | Graphics & Text | Print | Product List | Glossary On
Versions: 1 2 3 4 5 6 7 8 9 10 11 12 13 14 15 16 17 18 19 20 21 22 23 24 25 26 27 28 29 30 31 32 33 34 35 36 37 38 39 40 41 42 43 44 45 46 47 48 49 50
000
ASUS43 KDTX 231701
RWRMI
MICHIGAN HOURLY REGIONAL WEATHER ROUNDUP
NATIONAL WEATHER SERVICE DETROIT/PONTIAC MI
1200 PM EST THU NOV 23 2017

NOTE: "FAIR" INDICATES FEW OR NO CLOUDS BELOW 12,000 FEET WITH NO
SIGNIFICANT WEATHER AND/OR OBSTRUCTION TO VISIBILITY.

MIZ047>049-052>055-059>063-066>070-074>076-081>083-231800-
SOUTHEAST LOWER MICHIGAN

CITY           SKY/WX    TMP DP  RH WIND       PRES   REMARKS
ADRIAN         CLOUDY    32  25  75 SW12      30.06F WCI  23
ALMA           CLOUDY    35  25  67 SW10      29.96F WCI  27
ANN ARBOR      CLOUDY    32  24  72 S13       30.03F WCI  22
BAD AXE        CLOUDY    32  24  72 SW10      29.96F WCI  24
CARO           CLOUDY    33  24  68 S8        29.96F WCI  26
DETROIT CITY   CLOUDY    34  23  64 SW15      30.05F WCI  24
DETROIT        CLOUDY    34  25  69 SW14      30.06F WCI  25
FLINT          CLOUDY    33  21  61 SW8       30.00F WCI  26
GROSSE ILE     CLOUDY    35  25  67 SW9       30.06F WCI  27
HILLSDALE      CLOUDY    34  23  64 S9        30.01F WCI  26
HOWELL         CLOUDY    34  23  64 SW9       30.00F WCI  26

CITY           SKY/WX    TMP DP  RH WIND       PRES   REMARKS
JACKSON        CLOUDY    35  22  58 S10       30.01F WCI  27
LAMBERTVILLE   CLOUDY    37  25  61 SW7       30.07F WCI  32
LANSING        CLOUDY    35  23  61 S12       29.99F WCI  27
LAPEER         CLOUDY    33  22  64 SW10      29.99F WCI  25
MASON          CLOUDY    36  22  57 SW5       30.00F WCI  32
MONROE         CLOUDY    36  25  62 SW9       30.06F WCI  29
MT. CLEMENS    CLOUDY    34  23  64 SW10      30.02F WCI  26
PONTIAC        CLOUDY    31  23  72 S8        30.00F WCI  23
PORT HOPE        N/A     33  25  72 SW3       29.94F
PORT HURON     CLOUDY    32  23  69 S9        30.02F WCI  24
TRI CITIES     CLOUDY    35  25  66 SW13      29.97F WCI  26
MIDLAND        CLOUDY    36  25  65 S7        29.96F WCI  30
TROY           CLOUDY    35  23  62 S7        30.05F WCI  29
SAGINAW HB     CLOUDY    34  25  69 S15       29.96F WCI  24
$$
MIZ043>046-050>051-056>058-064>065-071>073-077>080-231800-
SOUTHWEST LOWER MICHIGAN

CITY           SKY/WX    TMP DP  RH WIND       PRES   REMARKS
BATTLE CREEK   MOSUNNY   37  22  54 S13       29.99F WCI  29
BENTON HARBOR  MOSUNNY   39  22  50 S12       30.00F WCI  32
BIG RAPIDS     CLOUDY    37  25  61 SW8       29.92F WCI  31
COLDWATER      CLOUDY    35  21  57 S7        30.02F WCI  29
FREMONT        CLOUDY    40  27  57 W12       29.94F WCI  34
HOLLAND        MOSUNNY   39  28  64 SW14      29.98F WCI  31
GRAND RAPIDS   PTSUNNY   38  27  64 SW15      29.98F WCI  29
IONIA          CLOUDY    36  23  59 S14       29.96F WCI  27
KALAMAZOO      SUNNY     37  20  50 S13       30.00F WCI  29
LUDINGTON      CLOUDY    39  25  58 W12       29.92F WCI  32
MARSHALL       CLOUDY    34  20  57 S12       29.99F WCI  26
MOUNT PLEASANT CLOUDY    37  25  61 S9        29.94F WCI  30
MUSKEGON       PTSUNNY   43  26  51 SW14G24   29.96F
SOUTH HAVEN    CLOUDY    40  23  51 S13       29.99F WCI  32
$$
MIZ016>042-231800-
NORTHERN LOWER MICHIGAN

CITY           SKY/WX    TMP DP  RH WIND       PRES   REMARKS
ALPENA         CLOUDY    35  28  75 SW9       29.90F WCI  28
BEAVER ISLAND  CLOUDY    37  28  69 W18G24    29.87F WCI  27
BELLAIRE       CLOUDY    36  29  76 SW5       29.89F WCI  32
CADILLAC       MOSUNNY   37  25  62 SW16G25   29.88F WCI  27
CHARLEVOIX     CLOUDY    37  29  73 SW15G22   29.90F WCI  27
FRANKFORT      MOSUNNY   41  25  53 SW8G17    29.91F
GAYLORD        CLOUDY    32  24  72 SW14      29.85F WCI  22
GRAYLING       CLOUDY    33  24  68 SW8       29.89F WCI  27
HARBOR SPRINGS CLOUDY    35  32  88 SW9G17    29.87F WCI  27
HOUGHTON LAKE  PTSUNNY   35  25  66 SW10      29.90F WCI  27
MANISTEE       MOSUNNY   39  24  55 SW12G18   29.92F WCI  32
OSCODA         CLOUDY    35  24  64 SW12G17   29.92F WCI  26
PELLSTON       PTSUNNY   36  30  79 SW8       29.86F WCI  30
ROGERS CITY    CLOUDY    34  28  77 SW10      29.87F WCI  26
TRAVERSE CITY  PTSUNNY   40  25  55 SW13G20   29.89F WCI  32
$$
MIZ007>008-015-231800-
EASTERN UPPER MICHIGAN

CITY           SKY/WX    TMP DP  RH WIND       PRES   REMARKS
KINROSS        CLOUDY    30  23  75 W8        29.84F WCI  22
MACKINAC ISLAN CLOUDY    37  28  70 W17G25    29.84F WCI  27
NEWBERRY       CLOUDY    29  22  74 W9        29.83F WCI  21
S. S. MARIE    CLOUDY    30  22  72 W8        29.84F WCI  22
MUNISING         N/A     34  22  61 W8        29.85F WCI  27
$$
MIZ004>006-011>014-085-231800-
CENTRAL UPPER MICHIGAN

CITY           SKY/WX    TMP DP  RH WIND       PRES   REMARKS
MANISTIQUE     PTSUNNY   34  14  44 W6        29.86F WCI  29
ESCANABA       CLOUDY    34  20  56 W12       29.88F WCI  25
MENOMINEE      PTSUNNY   35  20  54 VRB7      29.91F WCI  29
SAWYER-GWINN   SUNNY     32  19  59 W10G17    29.84F WCI  24
$$
MIZ001>003-009>011-084-231800-
WESTERN UPPER MICHIGAN

CITY           SKY/WX    TMP DP  RH WIND       PRES   REMARKS
IRON MOUNTAIN  SUNNY     35  18  49 W12       29.85F WCI  27
HOUGHTON       CLOUDY    32  25  75 W13       29.80F WCI  22
COPPER HARBOR    N/A     35  26  69 N17G24    29.81F WCI  25
IRONWOOD       SUNNY     33  19  56 SW6       29.86F WCI  28
$$

ABBREVIATIONS USED IN REMARKS
   TC - TEMPERATURE IN CELSIUS
  WCI - WIND CHILL INDEX
   HX - HEAT INDEX
  VSB - VISIBILITY




USA.gov is the U.S. government's official web portal to all federal, state and local government web resources and services.